Location: Buch
(49.7331°N, 12.1098°E)
Time: 15:19:20
(UTC+00:00)

Cosmos 1666 Rocket - Pass Details

Date: 12 May 2021
Orbit: 602 x 634 km, 82.5° (Epoch: 17 June)

Event Time Altitude Azimuth Distance (km) Brightness Sun altitude
Rises 19:40:12 0° 348° (NNW) 2,911 8.0 -7.9°
Reaches altitude 10° 19:42:27 10° 347° (NNW) 1,994 7.1 -8.2°
Maximum altitude 19:46:52 75° 262° (W) 640 3.7 -8.7°
Drops below altitude 10° 19:51:11 10° 178° (S) 1,959 5.7 -9.3°
Enters shadow 19:52:27 - 177° (S) 2,470 6.2 -9.4°
